STARLINK-4430, 53485

Orbit data source: Space-Track

STARLINK-4430, 53485 is a payload satellite owned by SpaceX/Seattle (US) in SSO that was launched on Fri, 12 Aug 2022 UTC via an FALCON 9 launch vehicle from the Air Force Western Test Range (AFWTR). Payload-class satellites include a variety of spacecraft equipped with specific instruments for various scientific and technological missions. These include communications satellites like Starlink; space stations such as the ISS; scientific satellites like the Hubble; Earth observation satellites from companies like Planet Labs, Umbra, and HawkEye 360; GPS; miniature CubeSats for education and research; and military/defense satellites.

Loading next visibility...
Identifier
53485, 2022-099W
Orbit
SSO
Country
Flag of USUS
Related business
Manufacturer
SpaceX/Seattle
Mission
Operational Commercial Communications
Bus & Motor
STARLINK, Unknown motor
Mass
300 kg wet, ~275 kg dry
Launch date (UTC)
2022-08-12 (3 years ago)
Launch vehicle
FALCON 9
Launch site
Air Force Western Test Range (AFWTR)
Object type
Payload
Rocket body
Debris
Shape & HBR
Box + 1 Pan, 10.1 m
Radar Cross Section
13.562 m², Large (>1 m²)

Expand to show TLE details & history
Last TLE update: 9 hours ago

TLE from 9 hours ago
0 STARLINK-4430
1 53485U 22099W   25293.59291542  .00000510  00000-0  44226-4 0  9993
2 53485  97.6040  53.0568 0002769  85.7027 274.4513 15.01262856174962
Epoch: 2025-10-20T14:13Z
TLE epoch observation values (Epoch: 2025-10-20T14:13:47.892Z)
Latitude
-0.00009°
Longitude
170.31426°
Altitude
565.912 km
Speed
7.578 km/s
True Right ascension
03h 32m 13s
True Declination
0° 00' 00"
Sunlit
Object was in full shadow at epoch
Visualization orbit readout
Latitude
Unknown
Longitude
Unknown
Altitude
Unknown
Speed
Unknown
Apparent Right ascension
Unknown
Apparent Declination
Unknown
Sunlit
N/A
Visualization observer readout
Local Sidereal Time
18:14:18
Azimuth
Unknown
Elevation
Unknown
Doppler factor
Unknown
Orbital elements
Apogee altitude
561.922 km
Perigee altitude
558.079 km
Semi-major axis
6,938.137 km
Eccentricity
0.00028
Inclination
97.604°
RAAN
53.0568°
Arg. of periapsis
85.7027°
True anomaly
274.41966°
Mean anomaly
274.4513°
Eccentric anomaly
274.43548°
Mean motion
3.7556 °/min
Orbital period
95.86 mins
BSTAR
0.000044226
Loading maneuver chart data...
Computing Atmospheric mass density...
Loading historical data...
Loading historical data...
Loading historical data...
Loading historical data...
Loading historical data...
Loading historical data...
Loading historical data...

Documentation

Showing up to 5 results
|